Location: Orange Harbor Mobile Home Park
(26.6923°N, 81.7937°W)
Time: 07:01:04
(UTC+00:00)

Delta 168 - Pass Details

Date: 19 September 2020
Orbit: 394 x 2050 km, 25.3° (Epoch: 29 October)

Event Time Altitude Azimuth Distance (km) Brightness Sun altitude
Rises 00:33:23 0° 273° (W) 3,019 8.4 -15.5°
Reaches altitude 10° 00:36:18 10° 263° (W) 1,869 6.7 -16.1°
Maximum altitude 00:39:55 30° 201° (SSW) 874 3.9 -16.9°
Enters shadow 00:41:13 23° 162° (SSE) 997 3.9 -17.2°
